Wind_Speed
14 13 13 13 14 14 16 19 20 20 19 17 21 21 23 23 23 25 26 25 27 28 29 29 30 27 27 28 28 25 24 25 12 19 18 23 22 23 18 17 19 17 19
16 15 15 14 14 14 15 17 18 21 21 21 21 22 20 21 22 24 23 24 23 24 28 27 28 22 28 30 28 29 28 27 24 12 22 18 25 23 21 18 19 18 17
16 17 18 18 18 18 19 20 19 19 19 17 15 14 15 17 12 15 16 19 23 24 23 24 27 25 26 30 29 26 27 28 28 23 21 23 20 21 17 16 17 16 16
14 15 16 17 17 17 15 15 17 19 19 18 16 16 16 17 19 21 23 24 29 28 31 31 31 33 31 33 29 29 28 28 28 26 23 17 22 21 18 15 16 16 15
11 13 15 15 15 16 17 15 14 15 17 17 16 16 17 17 18 19 22 23 27 30 30 32 33 36 33 36 32 31 32 31 29 29 21 7 14 16 17 13 15 14 15
12 13 15 16 16 16 17 17 16 14 16 19 19 19 18 15 16 20 18 19 21 24 27 29 31 33 34 37 39 35 30 28 26 18 10 12 9 13 15 13 14 12 4
11 13 15 16 15 15 16 17 18 17 16 17 19 19 19 19 23 25 23 19 17 19 22 21 22 23 24 29 35 37 38 30 32 30 24 22 17 19 17 20 19 20 14
12 14 15 15 15 15 16 17 18 18 18 17 18 19 18 20 23 21 17 14 14 15 15 14 12 10 9 11 14 12 8 9 13 17 15 15 17 18 22 21 21 20 11
14 15 15 15 15 17 17 17 17 17 17 16 15 14 15 21 24 23 19 18 18 20 20 18 14 15 14 13 9 11 11 9 6 7 2 7 9 11 15 19 19 13 3
13 13 14 15 15 16 16 16 16 16 16 14 13 13 13 14 24 22 16 12 12 11 11 11 10 8 6 7 6 5 5 3 4 5 7 9 10 12 12 12 10 9 5
11 12 13 15 14 16 15 16 16 16 14 14 13 12 13 17 20 25 22 16 15 14 13 12 12 12 10 9 6 5 4 7 6 5 7 7 7 9 11 14 11 12 11
11 12 13 13 13 13 13 14 14 14 13 15 14 14 13 16 17 19 20 18 16 13 12 11 11 12 11 11 9 7 6 5 5 5 8 9 9 10 12 12 12 8 9
11 11 11 11 11 12 12 14 13 15 16 15 15 15 16 18 18 19 20 20 18 17 14 12 9 11 11 11 9 9 9 8 9 7 8 10 12 12 11 9 10 11 10
9 10 11 12 14 13 13 13 13 14 13 14 13 14 16 20 21 23 23 21 20 20 16 11 11 12 12 13 12 10 10 12 11 12 12 11 11 11 12 15 13 8 6
9 11 13 12 13 13 13 13 12 12 13 13 15 16 16 15 18 20 20 22 21 19 15 11 12 11 10 12 10 9 10 10 12 12 10 10 11 11 14 15 11 10 5
10 11 12 12 12 13 13 14 11 13 14 11 13 14 14 15 19 20 19 18 18 14 9 8 10 10 10 10 10 9 11 10 12 11 12 13 13 15 15 14 11 10 8
9 11 9 11 11 12 12 14 15 16 15 14 15 16 16 19 18 19 19 16 14 12 9 11 9 10 10 10 9 9 8 8 9 9 11 12 13 16 17 15 11 10 7
9 10 12 13 13 13 15 15 15 17 19 20 16 16 12 18 23 18 20 17 14 13 11 12 12 11 10 9 9 8 7 6 6 8 9 11 14 17 16 14 12 10 8
13 14 17 17 18 19 17 18 18 16 15 18 22 22 21 22 25 21 18 16 16 16 14 13 12 11 9 8 7 6 7 7 6 7 8 10 14 17 15 15 12 10 9
15 16 18 17 18 19 20 20 20 21 22 20 18 17 18 21 22 20 22 20 19 19 16 14 11 8 7 7 6 6 7 7 7 6 6 9 12 16 16 15 14 13 9
15 16 18 19 20 22 22 22 21 21 20 20 22 19 20 21 21 21 18 20 21 23 17 12 9 7 7 7 6 6 6 6 6 4 5 7 10 15 15 14 14 13 10
16 18 18 18 18 19 20 20 20 21 21 22 23 24 25 22 22 21 22 23 26 26 15 10 6 5 5 5 5 7 6 6 5 5 4 5 9 14 13 14 15 13 12
16 17 17 17 17 18 18 19 21 21 21 21 22 23 23 23 23 23 23 27 26 17 8 4 2 4 5 6 7 5 6 7 6 4 4 4 7 12 14 15 16 15 14
15 15 16 16 17 17 18 18 19 20 20 20 21 22 23 24 24 23 23 27 18 11 8 7 8 8 8 8 7 6 6 7 6 5 3 4 6 10 14 15 17 16 15
15 16 16 16 17 18 18 19 19 20 20 21 22 23 24 24 23 23 23 22 23 18 15 13 13 12 10 10 10 9 8 7 7 6 4 5 6 9 12 16 17 18 17
15 15 15 15 17 17 18 19 19 21 21 21 22 23 23 24 24 24 23 23 23 19 18 16 17 15 14 12 12 9 8 7 7 6 4 4 6 8 10 13 17 17 18
Wind_Direction
17 7 359 348 334 318 302 294 286 285 286 274 261 258 252 247 241 238 241 244 238 235 242 241 242 239 240 238 230 226 223 222 235 242 226 218 213 198 209 210 223 233 246
37 35 26 13 0 349 336 329 316 295 280 275 272 269 271 260 249 250 253 254 250 247 242 239 245 241 246 240 224 221 218 218 225 228 226 212 198 191 204 220 222 232 237
34 35 32 28 22 15 11 6 356 348 344 331 321 293 282 284 269 259 259 258 257 252 250 246 251 249 247 239 224 221 222 222 224 228 229 212 187 194 199 227 230 234 235
26 25 23 17 12 7 9 13 5 358 351 343 338 333 321 300 284 275 261 276 267 255 257 257 251 246 251 240 227 223 223 222 222 221 220 214 185 185 195 208 228 231 230
16 18 14 9 4 359 356 357 7 6 357 351 349 343 336 333 329 315 292 271 266 266 260 251 254 259 246 240 232 226 222 222 218 216 216 165 161 157 173 191 228 227 228
16 18 12 8 3 360 356 352 355 8 3 352 351 349 349 355 348 336 329 321 304 286 271 273 268 261 257 246 237 231 231 228 220 213 166 157 151 154 172 198 226 238 232
17 17 15 6 3 358 358 356 353 358 4 0 353 351 350 358 346 338 336 330 326 319 308 306 290 272 263 259 256 248 243 236 226 198 171 163 158 181 192 206 220 223 218
20 22 18 10 1 360 356 358 357 356 2 1 0 356 359 3 358 357 6 8 15 15 8 357 354 339 323 281 250 229 187 171 175 180 177 176 181 181 204 212 222 221 208
23 21 17 6 360 0 0 1 0 3 10 8 19 31 42 39 32 24 28 39 47 49 46 43 46 54 47 41 55 59 64 66 92 129 151 176 173 196 218 214 183 161 134
19 19 13 8 4 5 4 6 7 14 20 27 34 40 36 30 26 20 20 17 31 31 38 44 45 43 20 3 3 353 335 317 283 264 230 250 227 231 214 229 206 177 154
12 16 13 11 11 14 14 18 22 31 34 30 25 22 17 9 5 8 14 14 6 1 2 8 10 2 355 347 336 320 296 277 259 261 241 237 233 227 222 216 202 210 194
17 21 20 17 15 13 17 14 16 12 5 359 354 350 354 357 4 12 11 9 3 358 354 354 354 351 347 342 333 319 306 294 279 266 256 252 235 213 223 219 213 201 201
25 22 18 15 12 12 13 7 5 5 3 357 356 350 347 351 351 351 352 353 352 346 330 317 323 332 335 334 329 309 297 292 286 267 244 231 238 238 229 202 196 211 229
20 11 9 6 4 3 4 2 0 355 349 347 344 341 340 341 343 344 341 338 336 331 330 316 306 322 331 317 315 309 295 281 272 257 253 257 256 237 214 206 191 200 204
17 10 9 4 2 358 358 351 351 351 348 340 341 336 332 327 331 333 334 332 329 323 317 302 308 325 329 321 312 301 293 283 263 260 255 241 238 227 198 199 195 182 190
20 14 7 359 356 351 346 338 335 333 340 334 330 331 340 338 341 343 339 335 333 323 309 304 315 318 316 312 311 306 299 289 274 261 258 246 225 201 181 180 186 187 180
11 3 0 349 343 337 335 331 327 332 332 333 330 329 332 339 342 343 345 340 344 344 324 316 311 316 312 312 311 305 289 291 287 277 264 243 217 193 180 173 169 181 178
353 342 351 337 332 327 326 324 327 327 327 330 332 324 337 348 338 336 339 346 336 328 315 310 310 314 312 306 308 302 302 303 303 294 269 240 214 189 174 175 176 177 174
356 355 348 338 332 326 323 328 325 320 321 323 328 335 344 344 342 342 337 342 332 323 320 315 314 310 306 302 300 306 307 313 305 299 269 230 209 187 174 175 181 180 166
3 3 356 344 341 341 338 334 331 329 327 322 320 320 337 342 334 334 331 334 332 326 314 309 306 299 307 313 313 315 317 324 319 304 278 236 211 195 180 178 181 175 176
1 357 354 354 354 350 347 338 329 333 331 321 323 334 347 335 323 321 327 324 329 323 310 304 302 296 304 317 320 323 324 321 322 302 277 243 214 189 185 188 183 177 180
8 2 0 4 359 357 351 348 342 342 343 345 339 338 339 333 327 326 324 319 317 323 308 297 305 318 313 325 326 331 326 325 324 318 287 250 219 196 192 187 185 181 162
15 11 7 5 360 353 352 353 354 357 353 350 351 349 344 337 331 326 325 317 311 317 306 300 340 9 5 351 342 338 336 335 329 315 279 249 214 201 195 184 184 184 167
20 15 10 7 3 359 357 355 356 356 354 353 354 352 349 346 341 343 343 348 3 2 12 36 42 34 23 8 2 359 342 332 327 325 282 245 227 209 200 193 188 186 177
23 19 16 10 5 2 0 0 359 358 356 356 355 355 354 354 352 352 352 352 360 8 15 23 23 18 13 4 347 349 343 335 325 311 295 242 231 213 204 194 189 184 181
27 23 19 15 12 8 7 4 3 3 0 0 0 360 360 360 359 359 359 359 2 5 11 12 10 11 6 356 347 343 336 337 320 305 292 243 218 211 202 198 188 185 181
Height
720 720 719 719 718 716 716 714 713 711 709 708 708 708 707 707 707 707 707 708 708 707 708 710 712 713 715 716 718 719 720 721 719 718 718 719 724 727 733 738 743 745 746
722 721 720 719 718 716 714 713 711 709 706 705 704 703 702 702 703 703 704 704 704 705 704 702 707 709 712 709 710 709 708 713 715 712 713 712 715 721 728 732 736 738 739
725 724 722 720 719 717 715 713 711 709 705 702 701 699 698 698 697 699 700 700 700 699 700 698 700 700 698 704 701 701 704 706 707 707 707 707 710 716 722 730 731 732 733
728 727 725 723 722 721 717 714 712 710 707 704 702 700 698 696 696 695 695 691 691 691 691 690 689 691 683 695 694 693 696 697 699 700 700 705 704 707 714 721 727 727 728
731 729 727 725 724 722 721 717 713 711 710 708 705 702 699 696 694 692 690 687 685 686 685 683 682 682 678 682 684 683 685 687 688 688 692 693 697 702 706 715 721 722 724
733 731 730 728 726 725 723 721 716 710 708 708 706 704 702 699 695 694 686 683 681 683 680 677 675 674 673 673 674 674 677 679 676 681 685 689 695 699 704 712 717 721 720
733 731 730 730 728 728 725 722 720 714 708 707 707 706 704 699 694 691 686 683 683 680 677 674 671 669 669 668 668 669 671 671 670 671 674 677 685 691 701 708 711 714 714
735 732 731 731 731 729 726 723 720 717 713 711 708 709 707 703 698 694 690 686 682 680 677 675 673 672 671 671 670 671 670 672 671 671 677 678 682 686 695 700 706 709 712
737 735 734 735 734 731 727 725 722 718 717 715 711 712 710 707 702 697 693 690 687 684 682 679 677 677 676 676 676 678 677 678 679 678 686 684 687 689 695 697 696 703 707
740 739 738 737 735 732 729 727 724 721 719 716 714 714 713 710 706 702 699 696 691 687 687 684 683 681 681 681 681 682 683 683 684 684 685 690 690 692 694 697 698 701 705
743 741 741 739 738 736 734 731 728 725 723 720 718 717 714 711 708 705 701 699 696 693 692 690 688 687 687 685 684 684 684 684 685 687 688 689 690 691 694 696 698 701 704
746 745 744 744 743 741 738 735 732 729 726 724 721 718 716 714 711 708 704 703 699 697 695 692 690 690 690 688 686 687 687 687 685 685 687 689 690 688 692 694 698 701 702
749 748 747 746 744 741 738 736 733 731 729 727 724 721 718 715 712 709 705 702 700 698 695 693 691 690 688 687 686 685 686 685 688 687 687 686 688 690 692 694 696 700 701
751 751 749 748 746 744 741 739 736 734 731 729 726 723 719 715 712 709 706 703 700 697 694 691 690 688 687 686 684 684 684 685 685 686 686 685 686 688 690 691 695 698 702
752 752 750 749 747 745 742 742 740 737 735 731 728 725 721 717 714 710 706 702 698 695 692 690 689 688 686 685 684 683 683 683 683 683 683 684 686 687 688 691 694 697 700
753 754 754 752 750 748 745 742 741 738 735 732 729 726 721 717 712 708 704 700 697 694 692 690 688 686 685 684 683 682 682 681 681 681 682 682 683 685 687 690 693 696 697
757 756 756 755 752 750 748 744 740 737 734 731 727 723 719 716 712 709 705 700 697 695 693 690 688 686 684 683 682 682 681 680 680 680 680 680 681 683 686 689 692 694 696
759 757 756 754 752 750 747 743 740 736 730 726 722 719 717 715 712 709 704 700 697 694 692 690 687 685 683 682 682 681 680 679 679 679 679 679 680 681 684 688 690 692 694
759 758 757 754 752 750 745 741 738 735 731 728 724 720 718 714 711 708 704 701 698 694 690 688 685 684 683 682 681 680 680 679 678 678 678 678 678 680 683 686 689 691 693
761 759 758 755 752 748 745 742 738 736 732 728 724 721 718 715 711 707 704 701 697 693 690 687 685 684 682 681 680 679 679 678 678 677 677 677 678 680 682 685 688 691 694
763 761 759 755 752 750 748 745 741 736 733 730 725 721 718 716 712 709 704 701 697 692 688 686 684 683 682 681 680 679 679 678 678 677 677 677 678 680 682 685 688 691 694
764 763 761 759 759 757 754 750 745 741 736 732 727 723 720 717 713 709 705 701 696 691 687 685 684 683 682 681 680 679 679 678 678 677 677 677 678 680 682 685 688 691 694
769 767 765 764 763 761 758 754 749 746 742 737 733 729 725 721 716 711 705 699 693 689 686 685 684 683 682 681 681 680 679 678 678 677 677 677 678 680 682 685 688 691 694
774 771 770 768 767 765 762 758 754 750 746 742 738 733 728 723 717 711 706 700 694 690 688 685 685 684 683 682 681 680 680 679 678 677 677 678 679 680 682 685 688 691 694
778 776 774 772 771 768 765 762 758 754 750 746 741 737 732 726 721 715 710 704 699 695 692 689 687 685 684 684 682 681 680 679 678 678 677 678 679 680 682 684 687 691 694
782 781 779 777 775 772 769 766 762 758 754 749 745 741 736 731 726 720 715 709 704 700 696 693 690 688 686 685 683 681 680 679 678 678 677 677 678 680 682 684 687 690 694